This is the latest recevied weather packets stored in our database for station/object N2OCK. If no packets are shown the sender has not sent any weather packets the latest 10 day(s).
| Time | Temp. | Humidity | Pressure | Rain* | Wind** | Luminosity | Snow |
|---|---|---|---|---|---|---|---|
| 1777852067 | 12.78° C | 35% | 1011 hPa | 0 mm | - | 5 W/m² | - |
| 1777851765 | 12.78° C | 35% | 1011 hPa | 0 mm | - | 7 W/m² | - |
| 1777851462 | 13.33° C | 34% | 1010.9 hPa | 0 mm | - | 10 W/m² | - |
| 1777851158 | 13.33° C | 34% | 1010.7 hPa | 0 mm | - | 13 W/m² | - |
| 1777850855 | 13.89° C | 32% | 1010.7 hPa | 0 mm | - | 18 W/m² | - |
| 1777850552 | 13.89° C | 33% | 1010.6 hPa | 0 mm | - | 21 W/m² | - |
| 1777850250 | 14.44° C | 31% | 1010.5 hPa | 0 mm | - | 26 W/m² | - |
| 1777849947 | 14.44° C | 31% | 1010.4 hPa | 0 mm | - | 31 W/m² | - |
| 1777849642 | 14.44° C | 32% | 1010.4 hPa | 0 mm | - | 34 W/m² | - |
| 1777849340 | 14.44° C | 31% | 1010.3 hPa | 0 mm | - | 44 W/m² | - |
| 1777849032 | 15° C | 30% | 1010.2 hPa | 0 mm | - | 51 W/m² | - |
| 1777848732 | 15° C | 30% | 1010.4 hPa | 0 mm | - | 60 W/m² | - |
| 1777848430 | 15° C | 30% | 1010.4 hPa | 0 mm | - | 70 W/m² | - |
| 1777848127 | 15° C | 30% | 1010.4 hPa | 0 mm | - | 79 W/m² | - |
| 1777847825 | 15° C | 29% | 1010.3 hPa | 0 mm | - | 90 W/m² | - |
| 1777847522 | 15° C | 29% | 1010.2 hPa | 0 mm | - | 101 W/m² | - |
| 1777847218 | 15° C | 29% | 1010.4 hPa | 0 mm | - | 114 W/m² | - |
| 1777846916 | 15° C | 29% | 1010.3 hPa | 0 mm | - | 126 W/m² | - |
| 1777846614 | 15° C | 31% | 1010.2 hPa | 0 mm | - | 138 W/m² | - |
| 1777846311 | 15° C | 30% | 1010.2 hPa | 0 mm | - | 151 W/m² | - |
| 1777846008 | 15° C | 30% | 1010.2 hPa | 0 mm | - | 162 W/m² | - |
| 1777845704 | 15° C | 30% | 1010.3 hPa | 0 mm | - | 175 W/m² | - |
| 1777845402 | 15° C | 30% | 1010.2 hPa | 0 mm | - | 190 W/m² | - |
| 1777845098 | 15.56° C | 29% | 1010.2 hPa | 0 mm | - | 204 W/m² | - |
| 1777844797 | 15° C | 31% | 1010.3 hPa | 0 mm | - | 219 W/m² | - |
* Rain latest hour (hover to see other rain measurements)
** Current wind speed in m/s (hover to see current wind gust speed)